sat.trackr.live / text

‹ back to catalog

QIANFAN-55

NORAD 62785 · 2025-016A

PAYLOAD ACTIVE UNKNOWN

§ Identity

Operator
Country
PRC
Launch date
2025-01-23
Launch site
TAISC
Launch vehicle
Mass (kg)
RCS (m²)

External: N2YO · Heavens-Above · Gunter

§ Orbital elements

Epoch: 2026-05-25T03:49:51.320064Z

Period
106.59 min
Inclination
88.9734°
Eccentricity
0.0015155
Mean motion
13.51012696 rev/d
Perigee alt
1,057.2 km
Apogee alt
1,079.8 km
Semi-major
7,446.7 km
B*
1.5364e-4
RAAN
86.2622°
Arg perigee
233.0729°
Mean anomaly
126.9034°
Rev number
6,925

§ Raw data

QIANFAN-551 62785U 25016A   26145.15962176  .00000111  00000+0  15364-3 0  99912 62785  88.9734  86.2622 0015155 233.0729 126.9034 13.51012696 69259

JSON: /api/v1/satellites/62785 · /tle

For live sub-satellite position, see the globe view (requires WebGL).

§ Visibility from observer

Set your observer location to see the next 7 days of passes ≥ 10°. The values pass through the URL so the page stays shareable.

No JS? Fill the form by hand. The geolocation button needs JavaScript.